| time (UTC) | temp C | wind direction | speed KPH | gust KPH | rain 1hr cm | rain 24hr cm | rain mn cm | humidity % | barometer mb |
| 20260503212042 | 31 | 0 | 0.0 | 0.0 | 0.00 | 0.00 | 0.00 | 29 | 1012.3 |
| 20260503211550 | 31 | 0 | 0.0 | 0.0 | 0.00 | 0.00 | 0.00 | 29 | 1012.4 |
| 20260503211040 | 31 | 0 | 0.0 | 0.0 | 0.00 | 0.00 | 0.00 | 29 | 1012.5 |
| 20260503210540 | 31 | 0 | 0.0 | 0.0 | 0.00 | 0.00 | 0.00 | 29 | 1012.5 |
| 20260503210057 | 30 | 0 | 0.0 | 0.0 | 0.00 | 0.00 | 0.00 | 30 | 1012.7 |
| 20260503205541 | 30 | 0 | 0.0 | 0.0 | 0.00 | 0.00 | 0.00 | 29 | 1012.7 |
| 20260503205043 | 30 | 0 | 0.0 | 0.0 | 0.00 | 0.00 | 0.00 | 30 | 1012.8 |
| 20260503204606 | 30 | 0 | 0.0 | 0.0 | 0.00 | 0.00 | 0.00 | 31 | 1012.9 |
| 20260503204040 | 31 | 0 | 0.0 | 0.0 | 0.00 | 0.00 | 0.00 | 29 | 1013.0 |
| 20260503203541 | 31 | 0 | 0.0 | 0.0 | 0.00 | 0.00 | 0.00 | 29 | 1013.1 |
| 20260503203105 | 31 | 0 | 0.0 | 0.0 | 0.00 | 0.00 | 0.00 | 30 | 1013.1 |
| 20260503202541 | 31 | 0 | 0.0 | 0.0 | 0.00 | 0.00 | 0.00 | 31 | 1013.2 |
| 20260503202041 | 31 | 0 | 0.0 | 0.0 | 0.00 | 0.00 | 0.00 | 31 | 1013.2 |
| 20260503201549 | 30 | 0 | 0.0 | 0.0 | 0.00 | 0.00 | 0.00 | 32 | 1013.2 |
| 20260503201042 | 31 | 0 | 0.0 | 0.0 | 0.00 | 0.00 | 0.00 | 29 | 1013.3 |
| 20260503200540 | 31 | 0 | 0.0 | 0.0 | 0.00 | 0.00 | 0.00 | 30 | 1013.3 |
| 20260503200055 | 31 | 0 | 0.0 | 0.0 | 0.00 | 0.00 | 0.00 | 30 | 1013.4 |
| 20260503195540 | 31 | 0 | 0.0 | 0.0 | 0.00 | 0.00 | 0.00 | 31 | 1013.4 |
| 20260503195042 | 31 | 0 | 0.0 | 0.0 | 0.00 | 0.00 | 0.00 | 30 | 1013.4 |
| 20260503194607 | 31 | 0 | 0.0 | 0.0 | 0.00 | 0.00 | 0.00 | 31 | 1013.4 |
| 20260503194041 | 31 | 0 | 0.0 | 0.0 | 0.00 | 0.00 | 0.00 | 31 | 1013.3 |
| 20260503193542 | 31 | 0 | 0.0 | 0.0 | 0.00 | 0.00 | 0.00 | 31 | 1013.4 |
| 20260503193050 | 31 | 0 | 0.0 | 0.0 | 0.00 | 0.00 | 0.00 | 32 | 1013.5 |
| 20260503192541 | 31 | 0 | 0.0 | 0.0 | 0.00 | 0.00 | 0.00 | 33 | 1013.4 |
| 20260503192041 | 30 | 0 | 0.0 | 0.0 | 0.00 | 0.00 | 0.00 | 32 | 1013.5 |
| 20260503191600 | 30 | 0 | 0.0 | 0.0 | 0.00 | 0.00 | 0.00 | 33 | 1013.5 |
| 20260503191042 | 30 | 0 | 0.0 | 0.0 | 0.00 | 0.00 | 0.00 | 34 | 1013.5 |
| 20260503190541 | 30 | 0 | 0.0 | 0.0 | 0.00 | 0.00 | 0.00 | 34 | 1013.6 |
| 20260503190057 | 29 | 0 | 0.0 | 0.0 | 0.00 | 0.00 | 0.00 | 35 | 1013.6 |
| 20260503185541 | 29 | 0 | 0.0 | 0.0 | 0.00 | 0.00 | 0.00 | 35 | 1013.7 |
| 20260503185041 | 28 | 0 | 0.0 | 0.0 | 0.00 | 0.00 | 0.00 | 35 | 1013.8 |
| 20260503184555 | 28 | 0 | 0.0 | 0.0 | 0.00 | 0.00 | 0.00 | 36 | 1013.8 |
| 20260503184041 | 28 | 0 | 0.0 | 0.0 | 0.00 | 0.00 | 0.00 | 35 | 1013.9 |
| 20260503183542 | 28 | 0 | 0.0 | 0.0 | 0.00 | 0.00 | 0.00 | 36 | 1014.0 |
| 20260503183105 | 27 | 0 | 0.0 | 0.0 | 0.00 | 0.00 | 0.00 | 38 | 1014.1 |
| 20260503182540 | 27 | 0 | 0.0 | 0.0 | 0.00 | 0.00 | 0.00 | 36 | 1014.1 |
| 20260503182040 | 27 | 0 | 0.0 | 0.0 | 0.00 | 0.00 | 0.00 | 37 | 1014.2 |
| 20260503181554 | 27 | 0 | 0.0 | 0.0 | 0.00 | 0.00 | 0.00 | 37 | 1014.2 |
| 20260503181040 | 27 | 0 | 0.0 | 0.0 | 0.00 | 0.00 | 0.00 | 37 | 1014.2 |
| 20260503180540 | 27 | 0 | 0.0 | 0.0 | 0.00 | 0.00 | 0.00 | 38 | 1014.1 |
| 20260503180105 | 26 | 0 | 0.0 | 0.0 | 0.00 | 0.00 | 0.00 | 38 | 1014.2 |
| 20260503175540 | 26 | 0 | 0.0 | 0.0 | 0.00 | 0.00 | 0.00 | 39 | 1014.2 |
| 20260503175040 | 26 | 0 | 0.0 | 0.0 | 0.00 | 0.00 | 0.00 | 39 | 1014.3 |
| 20260503174549 | 25 | 0 | 0.0 | 0.0 | 0.00 | 0.00 | 0.00 | 41 | 1014.3 |
| 20260503174041 | 25 | 0 | 0.0 | 0.0 | 0.00 | 0.00 | 0.00 | 42 | 1014.3 |
| 20260503173538 | 24 | 0 | 0.0 | 0.0 | 0.00 | 0.00 | 0.00 | 43 | 1014.3 |
| 20260503173134 | 23 | 0 | 0.0 | 0.0 | 0.00 | 0.00 | 0.00 | 44 | 1014.3 |
| 20260503172539 | 23 | 0 | 0.0 | 0.0 | 0.00 | 0.00 | 0.00 | 46 | 1014.3 |
| 20260503172039 | 22 | 0 | 0.0 | 0.0 | 0.00 | 0.00 | 0.00 | 48 | 1014.4 |
| 20260503171554 | 22 | 0 | 0.0 | 0.0 | 0.00 | 0.00 | 0.00 | 49 | 1014.4 |
| 20260503171045 | 21 | 0 | 0.0 | 0.0 | 0.00 | 0.00 | 0.00 | 52 | 1014.4 |
| 20260503170541 | 20 | 0 | 0.0 | 0.0 | 0.00 | 0.00 | 0.00 | 54 | 1014.5 |
| 20260503150541 | 17 | 0 | 0.0 | 0.0 | 0.00 | 0.00 | 0.00 | 65 | 1014.7 |
| 20260503131042 | 10 | 0 | 0.0 | 0.0 | 0.00 | 0.00 | 0.00 | 83 | 1014.2 |
| 20260503130542 | 10 | 0 | 0.0 | 0.0 | 0.00 | 0.00 | 0.00 | 83 | 1014.2 |
| 20260503130104 | 10 | 0 | 0.0 | 0.0 | 0.00 | 0.00 | 0.00 | 83 | 1014.3 |
| 20260503110540 | 12 | 0 | 0.0 | 0.0 | 0.00 | 0.00 | 0.00 | 79 | 1014.5 |
| 20260503081600 | 12 | 0 | 0.0 | 0.0 | 0.00 | 0.00 | 0.00 | 74 | 1014.4 |
| 20260503081040 | 12 | 0 | 0.0 | 0.0 | 0.00 | 0.00 | 0.00 | 74 | 1014.5 |
| 20260503080541 | 12 | 0 | 0.0 | 0.0 | 0.00 | 0.00 | 0.00 | 73 | 1014.4 |
| 20260503072541 | 12 | 0 | 0.0 | 0.0 | 0.00 | 0.00 | 0.00 | 72 | 1014.2 |
| 20260503072041 | 12 | 0 | 0.0 | 0.0 | 0.00 | 0.00 | 0.00 | 71 | 1014.3 |
| 20260503071554 | 12 | 0 | 0.0 | 0.0 | 0.00 | 0.00 | 0.00 | 71 | 1014.3 |
| 20260503071040 | 12 | 0 | 0.0 | 0.0 | 0.00 | 0.00 | 0.00 | 71 | 1014.2 |
| 20260503070541 | 12 | 0 | 0.0 | 0.0 | 0.00 | 0.00 | 0.00 | 71 | 1014.1 |
| 20260503055042 | 13 | 0 | 0.0 | 0.0 | 0.00 | 0.00 | 0.00 | 67 | 1014.1 |
| 20260503054555 | 13 | 0 | 0.0 | 0.0 | 0.00 | 0.00 | 0.00 | 67 | 1014.0 |
| 20260503054041 | 13 | 0 | 0.0 | 0.0 | 0.00 | 0.00 | 0.00 | 66 | 1014.0 |
| 20260503053540 | 13 | 0 | 0.0 | 0.0 | 0.00 | 0.00 | 0.00 | 65 | 1014.0 |
| 20260503053048 | 13 | 0 | 0.0 | 0.0 | 0.00 | 0.00 | 0.00 | 65 | 1014.0 |
| 20260503052543 | 14 | 0 | 0.0 | 0.0 | 0.00 | 0.00 | 0.00 | 66 | 1014.1 |
| 20260503052042 | 14 | 0 | 0.0 | 0.0 | 0.00 | 0.00 | 0.00 | 66 | 1014.1 |
| 20260503051551 | 14 | 0 | 0.0 | 0.0 | 0.00 | 0.00 | 0.00 | 66 | 1014.1 |
| 20260503051042 | 15 | 0 | 0.0 | 0.0 | 0.00 | 0.00 | 0.00 | 66 | 1014.1 |
| 20260503050543 | 15 | 0 | 0.0 | 0.0 | 0.00 | 0.00 | 0.00 | 65 | 1014.1 |
| 20260503050052 | 15 | 0 | 0.0 | 0.0 | 0.00 | 0.00 | 0.00 | 65 | 1014.1 |
| 20260503045543 | 15 | 0 | 0.0 | 0.0 | 0.00 | 0.00 | 0.00 | 63 | 1014.0 |
| 20260503045042 | 15 | 0 | 0.0 | 0.0 | 0.00 | 0.00 | 0.00 | 62 | 1014.0 |
| 20260503044555 | 15 | 0 | 0.0 | 0.0 | 0.00 | 0.00 | 0.00 | 62 | 1014.1 |
| 20260503044042 | 15 | 0 | 0.0 | 0.0 | 0.00 | 0.00 | 0.00 | 61 | 1014.1 |
| 20260503043542 | 16 | 0 | 0.0 | 0.0 | 0.00 | 0.00 | 0.00 | 60 | 1014.1 |
| 20260503043054 | 16 | 0 | 0.0 | 0.0 | 0.00 | 0.00 | 0.00 | 57 | 1014.0 |
| 20260503042542 | 16 | 0 | 0.0 | 0.0 | 0.00 | 0.00 | 0.00 | 55 | 1014.0 |
| 20260503042042 | 16 | 0 | 0.0 | 0.0 | 0.00 | 0.00 | 0.00 | 55 | 1014.0 |
| 20260503041552 | 16 | 0 | 0.0 | 0.0 | 0.00 | 0.00 | 0.00 | 56 | 1013.9 |
| 20260503041047 | 16 | 0 | 0.0 | 0.0 | 0.00 | 0.00 | 0.00 | 55 | 1013.8 |
| 20260503040543 | 16 | 0 | 0.0 | 0.0 | 0.00 | 0.00 | 0.00 | 54 | 1013.7 |
| 20260503040050 | 16 | 0 | 0.0 | 0.0 | 0.00 | 0.00 | 0.00 | 54 | 1013.7 |
| 20260503035541 | 16 | 0 | 0.0 | 0.0 | 0.00 | 0.00 | 0.00 | 54 | 1013.6 |
| 20260503035045 | 16 | 0 | 0.0 | 0.0 | 0.00 | 0.00 | 0.00 | 54 | 1013.6 |
| 20260503034552 | 16 | 0 | 0.0 | 0.0 | 0.00 | 0.00 | 0.00 | 55 | 1013.6 |
| 20260503034043 | 16 | 0 | 0.0 | 0.0 | 0.00 | 0.00 | 0.00 | 54 | 1013.5 |
| 20260503033542 | 16 | 0 | 0.0 | 0.0 | 0.00 | 0.00 | 0.00 | 53 | 1013.5 |
| 20260503033048 | 17 | 0 | 0.0 | 0.0 | 0.00 | 0.00 | 0.00 | 53 | 1013.6 |
| 20260503032543 | 17 | 0 | 0.0 | 0.0 | 0.00 | 0.00 | 0.00 | 53 | 1013.5 |
| 20260503032043 | 17 | 0 | 0.0 | 0.0 | 0.00 | 0.00 | 0.00 | 53 | 1013.4 |
| 20260503031606 | 17 | 0 | 0.0 | 0.0 | 0.00 | 0.00 | 0.00 | 52 | 1013.4 |
| 20260503031042 | 17 | 0 | 0.0 | 0.0 | 0.00 | 0.00 | 0.00 | 53 | 1013.4 |
| 20260503030543 | 17 | 0 | 0.0 | 0.0 | 0.00 | 0.00 | 0.00 | 52 | 1013.4 |
| 20260503030050 | 17 | 0 | 0.0 | 0.0 | 0.00 | 0.00 | 0.00 | 52 | 1013.4 |
| 20260503025541 | 17 | 0 | 0.0 | 0.0 | 0.00 | 0.00 | 0.00 | 52 | 1013.3 |
| 20260503025043 | 17 | 0 | 0.0 | 0.0 | 0.00 | 0.00 | 0.00 | 52 | 1013.4 |
| 20260503024550 | 17 | 0 | 0.0 | 0.0 | 0.00 | 0.00 | 0.00 | 52 | 1013.3 |
| 20260503024041 | 17 | 0 | 0.0 | 0.0 | 0.00 | 0.00 | 0.00 | 52 | 1013.4 |
| 20260503023542 | 17 | 0 | 0.0 | 0.0 | 0.00 | 0.00 | 0.00 | 52 | 1013.4 |
| 20260503023047 | 18 | 0 | 0.0 | 0.0 | 0.00 | 0.00 | 0.00 | 53 | 1013.4 |
| 20260503022541 | 18 | 0 | 0.0 | 0.0 | 0.00 | 0.00 | 0.00 | 53 | 1013.4 |
| 20260503022043 | 18 | 0 | 0.0 | 0.0 | 0.00 | 0.00 | 0.00 | 52 | 1013.5 |
| 20260503021550 | 18 | 0 | 0.0 | 0.0 | 0.00 | 0.00 | 0.00 | 52 | 1013.4 |
| 20260503021044 | 18 | 0 | 0.0 | 0.0 | 0.00 | 0.00 | 0.00 | 51 | 1013.4 |
| 20260503020541 | 18 | 0 | 0.0 | 0.0 | 0.00 | 0.00 | 0.00 | 51 | 1013.4 |
| 20260503020059 | 18 | 0 | 0.0 | 0.0 | 0.00 | 0.00 | 0.00 | 50 | 1013.5 |
| 20260503015543 | 18 | 0 | 0.0 | 0.0 | 0.00 | 0.00 | 0.00 | 50 | 1013.5 |
| 20260503015042 | 18 | 0 | 0.0 | 0.0 | 0.00 | 0.00 | 0.00 | 49 | 1013.5 |
| 20260503014554 | 18 | 0 | 0.0 | 0.0 | 0.00 | 0.00 | 0.00 | 49 | 1013.6 |
| 20260503014042 | 18 | 0 | 0.0 | 0.0 | 0.00 | 0.00 | 0.00 | 49 | 1013.6 |
| 20260503013542 | 18 | 0 | 0.0 | 0.0 | 0.00 | 0.00 | 0.00 | 49 | 1013.6 |
| 20260503013049 | 19 | 0 | 0.0 | 0.0 | 0.00 | 0.00 | 0.00 | 49 | 1013.7 |
| 20260503012541 | 19 | 0 | 0.0 | 0.0 | 0.00 | 0.00 | 0.00 | 49 | 1013.7 |
| 20260503012042 | 19 | 0 | 0.0 | 0.0 | 0.00 | 0.00 | 0.00 | 49 | 1013.9 |
| 20260503011604 | 19 | 0 | 0.0 | 0.0 | 0.00 | 0.00 | 0.00 | 48 | 1013.9 |
| 20260503011042 | 19 | 0 | 0.0 | 0.0 | 0.00 | 0.00 | 0.00 | 48 | 1013.9 |
| 20260503010544 | 19 | 0 | 0.0 | 0.0 | 0.00 | 0.00 | 0.00 | 48 | 1014.0 |
| 20260503010053 | 20 | 0 | 0.0 | 0.0 | 0.00 | 0.00 | 0.00 | 48 | 1014.0 |
| 20260503005541 | 20 | 0 | 0.0 | 0.0 | 0.00 | 0.00 | 0.00 | 48 | 1013.9 |
| 20260503005043 | 20 | 0 | 0.0 | 0.0 | 0.00 | 0.00 | 0.00 | 47 | 1014.0 |
| 20260503004547 | 20 | 0 | 0.0 | 0.0 | 0.00 | 0.00 | 0.00 | 46 | 1014.0 |
| 20260503004042 | 20 | 0 | 0.0 | 0.0 | 0.00 | 0.00 | 0.00 | 47 | 1014.0 |
| 20260503003543 | 20 | 0 | 0.0 | 0.0 | 0.00 | 0.00 | 0.00 | 47 | 1014.1 |
| 20260503003050 | 21 | 0 | 0.0 | 0.0 | 0.00 | 0.00 | 0.00 | 47 | 1014.1 |
| 20260503002541 | 21 | 0 | 0.0 | 0.0 | 0.00 | 0.00 | 0.00 | 46 | 1014.1 |
| 20260503002041 | 21 | 0 | 0.0 | 0.0 | 0.00 | 0.00 | 0.00 | 47 | 1014.1 |
| 20260503001553 | 21 | 0 | 0.0 | 0.0 | 0.00 | 0.00 | 0.00 | 46 | 1014.1 |
| 20260503001042 | 21 | 0 | 0.0 | 0.0 | 0.00 | 0.00 | 0.00 | 45 | 1014.1 |
| 20260503000541 | 22 | 0 | 0.0 | 0.0 | 0.00 | 0.00 | 0.00 | 45 | 1014.1 |
| 20260502235542 | 22 | 0 | 0.0 | 0.0 | 0.00 | 0.00 | 0.00 | 43 | 1014.2 |
| 20260502235042 | 22 | 0 | 0.0 | 0.0 | 0.00 | 0.00 | 0.00 | 41 | 1014.3 |
| 20260502234550 | 23 | 0 | 0.0 | 0.0 | 0.00 | 0.00 | 0.00 | 40 | 1014.3 |
| 20260502234042 | 23 | 0 | 0.0 | 0.0 | 0.00 | 0.00 | 0.00 | 39 | 1014.3 |
| 20260502233541 | 24 | 0 | 0.0 | 0.0 | 0.00 | 0.00 | 0.00 | 38 | 1014.3 |
| 20260502233046 | 24 | 0 | 0.0 | 0.0 | 0.00 | 0.00 | 0.00 | 38 | 1014.4 |
| 20260502232540 | 25 | 0 | 0.0 | 0.0 | 0.00 | 0.00 | 0.00 | 37 | 1014.4 |
| 20260502232041 | 25 | 0 | 0.0 | 0.0 | 0.00 | 0.00 | 0.00 | 37 | 1014.4 |
| 20260502231615 | 26 | 0 | 0.0 | 0.0 | 0.00 | 0.00 | 0.00 | 38 | 1014.4 |
| 20260502231042 | 26 | 0 | 0.0 | 0.0 | 0.00 | 0.00 | 0.00 | 36 | 1014.5 |
| 20260502230541 | 26 | 0 | 0.0 | 0.0 | 0.00 | 0.00 | 0.00 | 34 | 1014.5 |
| 20260502230052 | 27 | 0 | 0.0 | 0.0 | 0.00 | 0.00 | 0.00 | 34 | 1014.6 |
| 20260502225541 | 27 | 0 | 0.0 | 0.0 | 0.00 | 0.00 | 0.00 | 33 | 1014.6 |
| 20260502225041 | 28 | 0 | 0.0 | 0.0 | 0.00 | 0.00 | 0.00 | 33 | 1014.7 |
| 20260502224559 | 28 | 0 | 0.0 | 0.0 | 0.00 | 0.00 | 0.00 | 34 | 1014.7 |
| 20260502224042 | 28 | 0 | 0.0 | 0.0 | 0.00 | 0.00 | 0.00 | 34 | 1014.8 |
| 20260502223542 | 28 | 0 | 0.0 | 0.0 | 0.00 | 0.00 | 0.00 | 34 | 1014.8 |
| 20260502223051 | 28 | 0 | 0.0 | 0.0 | 0.00 | 0.00 | 0.00 | 35 | 1015.0 |
| 20260502222541 | 28 | 0 | 0.0 | 0.0 | 0.00 | 0.00 | 0.00 | 34 | 1015.1 |
| 20260502222041 | 28 | 0 | 0.0 | 0.0 | 0.00 | 0.00 | 0.00 | 35 | 1015.2 |
| 20260502221554 | 28 | 0 | 0.0 | 0.0 | 0.00 | 0.00 | 0.00 | 35 | 1015.2 |
| 20260502221041 | 28 | 0 | 0.0 | 0.0 | 0.00 | 0.00 | 0.00 | 35 | 1015.3 |
| 20260502220541 | 28 | 0 | 0.0 | 0.0 | 0.00 | 0.00 | 0.00 | 35 | 1015.3 |
| 20260502220050 | 28 | 0 | 0.0 | 0.0 | 0.00 | 0.00 | 0.00 | 34 | 1015.5 |
| 20260502215541 | 29 | 0 | 0.0 | 0.0 | 0.00 | 0.00 | 0.00 | 33 | 1015.5 |
| 20260502215042 | 29 | 0 | 0.0 | 0.0 | 0.00 | 0.00 | 0.00 | 34 | 1015.6 |
| 20260502214550 | 29 | 0 | 0.0 | 0.0 | 0.00 | 0.00 | 0.00 | 34 | 1015.5 |
| 20260502214040 | 29 | 0 | 0.0 | 0.0 | 0.00 | 0.00 | 0.00 | 35 | 1015.7 |
| 20260502213540 | 28 | 0 | 0.0 | 0.0 | 0.00 | 0.00 | 0.00 | 34 | 1015.8 |
| 20260502213054 | 28 | 0 | 0.0 | 0.0 | 0.00 | 0.00 | 0.00 | 35 | 1015.9 |
| 20260502212541 | 28 | 0 | 0.0 | 0.0 | 0.00 | 0.00 | 0.00 | 35 | 1015.8 |